Regional Weather Roundup
Issued by NWS

Home | Current Version | Previous Version | Graphics & Text | Print | Product List | Glossary On
Versions: 1 2 3 4 5 6 7 8 9 10 11 12 13 14 15 16 17 18 19 20 21 22 23 24 25 26 27 28 29 30 31 32 33 34 35 36 37 38 39 40 41 42 43 44 45 46 47 48 49 50
000
ASUS43 KBIS 230810
RWRND

NORTH DAKOTA REGIONAL WEATHER ROUNDUP
NATIONAL WEATHER SERVICE BISMARCK ND
300 AM CDT THU OCT 23 2014

NOTE: "FAIR" INDICATES FEW OR NO CLOUDS BELOW 12,000 FEET WITH NO
SIGNIFICANT WEATHER AND/OR OBSTRUCTIONS TO VISIBILITY.


NDZ001>003-009>011-017-230900-
NORTHWEST NORTH DAKOTA

CITY           SKY/WX    TMP DP  RH WIND       PRES   REMARKS
WILLISTON      CLEAR     39  32  76 SW8       29.87R
MINOT          CLEAR     47  34  60 SW13      29.83S
MINOT AFB      CLEAR     44  36  72 SW8       29.82S
$$

NDZ018>021-031>035-040>046-230900-
SOUTHWEST NORTH DAKOTA

CITY           SKY/WX    TMP DP  RH WIND       PRES   REMARKS
BISMARCK       CLEAR     40  33  76 W5        29.92S
DICKINSON      CLEAR     37  27  67 SW10      29.89F
GARRISON         N/A     41  38  89 W5        29.87S
HETTINGER ARPT CLEAR     40  26  57 S3        29.95F
$$

NDZ004>008-012>016-024-026-027-054-230900-
NORTHEAST NORTH DAKOTA

CITY           SKY/WX    TMP DP  RH WIND       PRES   REMARKS
GRAND FORKS    CLOUDY    48  45  89 SW8       29.84S
GRND FRKS AFB  CLOUDY    49  49  99 SW8       29.84S
DEVILS LAKE    PTCLDY    54  41  62 SW13      29.82S
$$

NDZ022-023-025-028>030-036>039-047>053-230900-
SOUTHEAST NORTH DAKOTA

CITY           SKY/WX    TMP DP  RH WIND       PRES   REMARKS
FARGO          CLEAR     47  45  93 SW7       29.89S
JAMESTOWN      CLEAR     43  38  82 W7        29.89S
$$




USA.gov is the U.S. government's official web portal to all federal, state and local government web resources and services.